TimeEDT,TemperatureF,Dew PointF,Humidity,Sea Level PressureIn,VisibilityMPH,Wind Direction,Wind SpeedMPH,Gust SpeedMPH,PrecipitationIn,Events,Conditions,WindDirDegrees,DateUTC
12:16 AM,50.0,44.6,82,30.34,10.0,Calm,Calm,-,N/A,,Clear,0,2012-10-14 04:16:00
12:58 AM,50.0,44.6,82,30.32,10.0,Calm,Calm,-,N/A,,Clear,0,2012-10-14 04:58:00
1:20 AM,51.8,46.4,82,30.31,10.0,South,3.5,-,N/A,,Clear,180,2012-10-14 05:20:00
1:41 AM,51.8,46.4,82,30.30,10.0,Calm,Calm,-,N/A,,Clear,0,2012-10-14 05:41:00
2:02 AM,53.6,46.4,77,30.30,10.0,South,4.6,-,N/A,,Clear,180,2012-10-14 06:02:00
2:24 AM,53.6,46.4,77,30.30,10.0,SSW,5.8,-,N/A,,Clear,210,2012-10-14 06:24:00
2:45 AM,53.6,46.4,77,30.29,10.0,SSW,3.5,-,N/A,,Clear,200,2012-10-14 06:45:00
3:06 AM,53.6,46.4,77,30.29,10.0,SSW,4.6,-,N/A,,Clear,210,2012-10-14 07:06:00
3:27 AM,51.8,46.4,82,30.28,10.0,SSW,6.9,-,N/A,,Clear,210,2012-10-14 07:27:00
3:49 AM,51.8,46.4,82,30.27,10.0,SSW,5.8,-,N/A,,Clear,210,2012-10-14 07:49:00
4:10 AM,51.8,46.4,82,30.27,10.0,SSW,5.8,-,N/A,,Clear,210,2012-10-14 08:10:00
4:31 AM,51.8,46.4,82,30.26,10.0,SSW,5.8,-,N/A,,Clear,200,2012-10-14 08:31:00
5:14 AM,51.8,46.4,82,30.27,10.0,SW,4.6,-,N/A,,Clear,220,2012-10-14 09:14:00
5:35 AM,51.8,46.4,82,30.26,10.0,SSW,4.6,-,N/A,,Clear,210,2012-10-14 09:35:00
5:57 AM,51.8,46.4,82,30.26,10.0,SW,6.9,-,N/A,,Clear,220,2012-10-14 09:57:00
6:18 AM,51.8,46.4,82,30.26,10.0,SW,6.9,-,N/A,,Clear,220,2012-10-14 10:18:00
6:39 AM,51.8,46.4,82,30.26,10.0,SW,5.8,-,N/A,,Clear,220,2012-10-14 10:39:00
7:00 AM,51.8,46.4,82,30.26,10.0,SSW,5.8,-,N/A,,Clear,210,2012-10-14 11:00:00
7:22 AM,51.8,46.4,82,30.27,10.0,WSW,5.8,-,N/A,,Clear,240,2012-10-14 11:22:00
7:43 AM,51.8,46.4,82,30.27,10.0,SW,6.9,-,N/A,,Clear,220,2012-10-14 11:43:00
8:47 AM,55.4,46.4,72,30.26,10.0,SSW,8.1,-,N/A,,Clear,210,2012-10-14 12:47:00
9:08 AM,57.2,46.4,67,30.27,10.0,SSW,10.4,16.1,N/A,,Clear,210,2012-10-14 13:08:00
9:29 AM,59.0,48.2,67,30.27,10.0,SW,8.1,-,N/A,,Clear,220,2012-10-14 13:29:00
9:50 AM,59.0,46.4,63,30.27,10.0,SW,9.2,18.4,N/A,,Clear,230,2012-10-14 13:50:00
10:12 AM,60.8,46.4,59,30.27,10.0,SSW,10.4,18.4,N/A,,Clear,210,2012-10-14 14:12:00
10:54 AM,62.6,48.2,59,30.26,10.0,SSW,9.2,-,N/A,,Clear,210,2012-10-14 14:54:00
11:15 AM,64.4,48.2,56,30.25,10.0,SW,10.4,-,N/A,,Clear,220,2012-10-14 15:15:00
11:37 AM,66.2,50.0,56,30.24,10.0,SSW,6.9,-,N/A,,Clear,200,2012-10-14 15:37:00
11:58 AM,66.2,48.2,52,30.23,10.0,SSW,12.7,19.6,N/A,,Clear,200,2012-10-14 15:58:00
12:19 PM,68.0,46.4,46,30.22,10.0,South,11.5,16.1,N/A,,Clear,190,2012-10-14 16:19:00
12:40 PM,68.0,46.4,46,30.21,10.0,SSW,11.5,17.3,N/A,,Clear,210,2012-10-14 16:40:00
1:02 PM,69.8,44.6,40,30.19,10.0,SSW,8.1,20.7,N/A,,Clear,200,2012-10-14 17:02:00
1:23 PM,69.8,44.6,40,30.18,10.0,South,9.2,18.4,N/A,,Clear,170,2012-10-14 17:23:00
1:44 PM,71.6,44.6,38,30.17,10.0,SSW,12.7,20.7,N/A,,Clear,210,2012-10-14 17:44:00
2:05 PM,71.6,44.6,38,30.15,10.0,SW,15.0,19.6,N/A,,Clear,220,2012-10-14 18:05:00
2:26 PM,71.6,44.6,38,30.14,10.0,South,8.1,20.7,N/A,,Clear,180,2012-10-14 18:26:00
2:48 PM,73.4,42.8,33,30.13,10.0,South,10.4,17.3,N/A,,Clear,190,2012-10-14 18:48:00
3:09 PM,71.6,44.6,38,30.12,10.0,SSW,10.4,18.4,N/A,,Clear,200,2012-10-14 19:09:00
3:51 PM,73.4,44.6,36,30.10,10.0,SSW,13.8,18.4,N/A,,Clear,200,2012-10-14 19:51:00
4:13 PM,71.6,46.4,41,30.09,10.0,SSW,9.2,17.3,N/A,,Clear,200,2012-10-14 20:13:00
4:34 PM,73.4,46.4,38,30.08,10.0,South,9.2,17.3,N/A,,Clear,190,2012-10-14 20:34:00
4:55 PM,71.6,48.2,43,30.08,10.0,SSW,9.2,16.1,N/A,,Clear,200,2012-10-14 20:55:00
5:16 PM,71.6,50.0,46,30.07,10.0,South,6.9,-,N/A,,Clear,180,2012-10-14 21:16:00
5:37 PM,71.6,51.8,50,30.08,10.0,SSW,6.9,-,N/A,,Clear,200,2012-10-14 21:37:00
5:59 PM,69.8,51.8,53,30.08,10.0,South,4.6,-,N/A,,Clear,180,2012-10-14 21:59:00
6:20 PM,68.0,51.8,56,30.07,10.0,South,3.5,-,N/A,,Clear,190,2012-10-14 22:20:00
6:41 PM,68.0,51.8,56,30.07,10.0,South,4.6,-,N/A,,Clear,180,2012-10-14 22:41:00
7:02 PM,68.0,53.6,60,30.07,10.0,South,4.6,-,N/A,,Clear,190,2012-10-14 23:02:00
7:24 PM,68.0,53.6,60,30.06,10.0,South,4.6,-,N/A,,Clear,190,2012-10-14 23:24:00
7:45 PM,66.2,53.6,64,30.06,10.0,South,3.5,-,N/A,,Clear,190,2012-10-14 23:45:00
8:06 PM,66.2,53.6,64,30.05,10.0,South,5.8,-,N/A,,Clear,180,2012-10-15 00:06:00
8:27 PM,66.2,53.6,64,30.05,10.0,South,6.9,-,N/A,,Clear,190,2012-10-15 00:27:00
8:49 PM,66.2,53.6,64,30.05,10.0,South,5.8,-,N/A,,Clear,180,2012-10-15 00:49:00
9:10 PM,64.4,53.6,68,30.04,10.0,South,6.9,-,N/A,,Clear,190,2012-10-15 01:10:00
9:31 PM,64.4,53.6,68,30.04,10.0,SSW,5.8,-,N/A,,Clear,200,2012-10-15 01:31:00
9:52 PM,64.4,53.6,68,30.03,10.0,South,5.8,-,N/A,,Clear,180,2012-10-15 01:52:00
10:56 PM,64.4,53.6,68,30.00,10.0,South,5.8,-,N/A,,Clear,190,2012-10-15 02:56:00
11:17 PM,64.4,53.6,68,29.99,10.0,South,5.8,-,N/A,,Clear,190,2012-10-15 03:17:00
11:39 PM,64.4,53.6,68,29.99,10.0,SSW,8.1,-,N/A,,Clear,200,2012-10-15 03:39:00